Regional Weather Roundup
Issued by NWS

Home | Current Version | Previous Version | Graphics & Text | Print | Product List | Glossary On
Versions: 1 2 3 4 5 6 7 8 9 10 11 12 13 14 15 16 17 18 19 20 21 22 23 24 25 26 27 28 29 30 31 32 33 34 35 36 37 38 39 40 41 42 43 44 45 46 47 48 49 50
468
ASUS43 KMPX 090901
RWRMN
WEATHER ROUNDUP FOR MINNESOTA
NATIONAL WEATHER SERVICE TWIN CITIES/CHANHASSEN MN
300 AM CST TUE FEB 09 2016


NOTE: "FAIR" INDICATES FEW OR NO CLOUDS BELOW 12,000 FEET WITH NO
SIGNIFICANT WEATHER AND/OR OBSTRUCTIONS TO VISIBILITY. N/A MEANS
CURRENT SKY AND/OR WEATHER CONDITIONS ARE NOT AVAILABLE.

MNZ060>063-068>070-091000-
   Twin Cities Metro

CITY           SKY/WX    TMP DP  RH WIND       PRES   REMARKS
TWIN CITIES    MOCLDY     9   0  67 N22G29    30.02R WCI -11
ST PAUL        CLOUDY    10   0  63 NW21G28   30.03R WCI  -9
CRYSTAL        PTCLDY     9   0  67 N10       30.02R WCI  -5
BLAINE         MOCLDY    10   1  67 N21G28    30.02R WCI  -9
LAKEVILLE      CLOUDY     9   3  78 N18       29.99R WCI -10
EDEN PRAIRIE   PTCLDY    10   1  67 N14G24    30.01R WCI  -6
SOUTH ST PAUL  CLOUDY    10   1  65 N14G24    30.01R WCI  -5
LAKE ELMO      FLURRIES  10   3  72 NW13      30.01R WCI  -5
$$
MNZ001>005-007-008-013>017-022>024-027-028-091000-
   Northwest Minnesota

CITY           SKY/WX    TMP DP  RH WIND       PRES   REMARKS
BEMIDJI        CLEAR      0  -4  82 NW12      30.12R WCI -17
HALLOCK        CLOUDY     3  -2  78 N8        30.26S WCI -10
ROSEAU         PTCLDY    -2  -8  78 NW7       30.20S WCI -16
WARROAD        PTCLDY    -2  -8  78 NW6       30.18S WCI -14
CROOKSTON      CLEAR      1  -2  85 N9        30.25F WCI -14
FOSSTON        CLOUDY    -2  -6  84 NW8       30.18S WCI -17
DETROIT LAKES  CLOUDY     1   0  92 N13       30.17R WCI -16
MOORHEAD       CLEAR      5   0  78 N14       30.25S WCI -12
PARK RAPIDS    PTCLDY     2  -4  76 NW10      30.10R WCI -14
MAHNOMEN       FAIR      -1  -6  80 NW9       30.19R WCI -16
$$
MNZ006-009>011-018-025>026-091000-
   North Central Minnesota

CITY           SKY/WX    TMP DP  RH WIND       PRES   REMARKS
BAUDETTE       CLOUDY    -2  -7  79 NW12      30.13R WCI -20
FLAG ISLAND    CLOUDY    -6  -9  84 NW10      30.16S WCI -23
INTL FALLS     CLOUDY     1  -4  79 N14       30.08R WCI -17
WASKISH        CLOUDY     0  -4  85 NW6       30.13S WCI -12
LONGVILLE      CLEAR      1  -2  85 NW7       30.07S WCI -11
GRAND RAPIDS   CLOUDY     1  -6  71 N20G26    30.03R WCI -20
ORR            CLOUDY     0  -6  78 NW8       30.01R WCI -15
COOK           CLOUDY     0  -6  78 NW6       30.02R WCI -12
WALKER         FAIR       2  -3  78 NW10G18   30.09R WCI -14
$$
MNZ012-019>021-037-091000-
   Northeast Minnesota

CITY           SKY/WX    TMP DP  RH WIND       PRES   REMARKS
DULUTH         CLOUDY     2  -5  72 N14G25    29.94R WCI -16
ELY            CLOUDY     0  -4  85 NW8       29.96R WCI -15
HIBBING        CLOUDY    -2  -6  83 NW18      30.00R WCI -24
EVELETH        CLOUDY     3  -4  72 NW12G20   29.99R WCI -13
DULUTH HARBOR  CLOUDY     9   0  66 NW8G18    30.03R WCI  -4
TWO HARBORS    CLOUDY     7  -2  66 NW9       29.92S WCI  -7
SILVER BAY     CLOUDY     7  -2  66 NW10G20   29.90S WCI  -8
GRAND MARAIS     N/A      7  -3  64 E8        29.93S WCI  -6
G MARAIS ARPRT CLOUDY     0  -8  71 NW22G32   29.79S HAZE    WCI -23
$$
MNZ029>031-032-039>041-046>048-054>057-064-091000-
   West Central Minnesota

CITY           SKY/WX    TMP DP  RH WIND       PRES   REMARKS
FERGUS FALLS   CLEAR      3  -2  78 N18G25    30.22R WCI -17
WHEATON        CLEAR      9   3  78 NW17G23   30.24R WCI -10
MORRIS         CLEAR      5   0  78 N22G30    30.16R WCI -16
ALEXANDRIA     MOCLDY     5  -1  76 NW14      30.10R WCI -12
ELBOW LAKE     FAIR       4  -1  82 NW18      30.17R WCI -16
WADENA         CLEAR      1  -2  85 NW13      30.10R WCI -16
GLENWOOD       CLEAR      3   0  85 NW12      30.11R WCI -13
APPLETON       MOCLDY     9   1  72 N18G25    30.19R WCI -10
BENSON         CLOUDY     7   0  72 N16G23    30.15R WCI -11
ORTONVILLE     MOCLDY     7   0  72 N21G29    30.19R WCI -13
MADISON        MOCLDY     9   1  72 NW23      30.20R WCI -12
WILLMAR        FAIR       9   1  72 NW17      30.11R WCI -10
$$
MNZ033>034-036-042>043-049>051-058-059-091000-
   Central Minnesota

CITY           SKY/WX    TMP DP  RH WIND       PRES   REMARKS
ST CLOUD       CLEAR      6  -3  66 N16G26    30.05R WCI -12
SAUK CENTRE    FAIR       5  -1  75 NW13G20   30.09R WCI -12
PAYNESVILLE    PTCLDY     6   0  75 NW12G17   30.09R WCI  -9
AITKIN         PTCLDY     5  -6  61 NW7G16    30.04R WCI  -7
PINE RIVER     CLEAR      3  -2  78 N12       30.10R WCI -13
BRAINERD       CLOUDY     4  -3  73 N18G28    30.06R WCI -16
STAPLES        CLEAR      1  -4  78 NW13      30.09R WCI -16
LONG PRAIRIE   FAIR       5   0  78 NW9       30.07R WCI  -9
LITTLE FALLS   CLEAR      5  -2  72 NW10G18   30.08R WCI -10
LITCHFIELD     PTCLDY     9   3  78 NW17G23   30.07R WCI -10
BUFFALO        CLEAR      8   1  70 NW10G16   30.05R WCI  -6
MAPLE LAKE     CLEAR      9   2  73 NW13      30.05R WCI  -6
$$
MNZ037-044-045-052-053-091000-
   East Central Minnesota

CITY           SKY/WX    TMP DP  RH WIND       PRES   REMARKS
PRINCETON      CLEAR      7   0  72 NW12G18   30.04R WCI  -9
MORA           CLEAR      7   0  72 NW10      30.04R WCI  -8
CAMBRIDGE      CLEAR      9  -2  61 NW7       30.02R WCI  -3
RUSH CITY      MOCLDY     6  -2  72 NW12G18   30.02R WCI -10
MOOSE LAKE     PTCLDY     3  -4  72 N9        30.00R WCI -11
HINCKLEY       PTSUNNY    7   0  72 N17       30.01R WCI -12
CLOQUET        CLOUDY     1  -6  71 NW13G18   29.97R WCI -16
MCGREGOR       CLEAR      3  -2  78 NW15G21   30.03R WCI -15
$$
MNZ071>073-080-081-089-090-097-098-091000-
   Southwest Minnesota

CITY           SKY/WX    TMP DP  RH WIND       PRES   REMARKS
MONTEVIDEO     CLOUDY     7   1  78 N21G29    30.17R WCI -13
GRANITE FALLS  CLOUDY     9   4  78 NW17G24   30.16R WCI  -9
CANBY          MOCLDY    10   6  82 W16       30.19R WCI  -7
MARSHALL       CLEAR      6   1  80 N25G33    30.13R WCI -16
REDWOOD FALLS  PTCLDY     7   2  80 NW13G22   30.10R WCI  -9
OLIVIA         CLEAR     10   3  72 NW15      30.10R WCI  -6
PIPESTONE      CLEAR      7  -2  66 N15G22    30.10R WCI -11
WINDOM         PTCLDY     7   1  78 NW28G33   30.05R FOG     WCI -16
WORTHINGTON    CLOUDY   N/A N/A N/A N28G35    30.07R
JACKSON        CLOUDY     9   1  72 NW22G33   30.04R HAZE    WCI -11
TRACY          CLEAR      7   3  82 NW22G30   30.11R WCI -13
SLAYTON        CLOUDY     5   2  88 NW23G30   30.08R FOG     WCI -17
$$
MNZ065>067-074>077-082>085-091>093-091000-
   South Central Minnesota

CITY           SKY/WX    TMP DP  RH WIND       PRES   REMARKS
MANKATO        PTCLDY    10   3  72 NW16      30.02R WCI  -7
NEW ULM        CLOUDY     9   1  72 NW20G26   30.05R WCI -11
ST JAMES       CLOUDY     9   3  78 NW23G31   30.06R WCI -12
FAIRMONT       CLOUDY     9   1  72 NW21G29   30.01R WCI -11
GLENCOE        PTCLDY    11   5  75 NW14      30.04R WCI  -5
FARIBAULT      CLOUDY    10   3  72 NW13G18   29.99S WCI  -5
OWATONNA       CLOUDY    10   3  72 NW17      29.97R WCI  -7
WASECA         PTCLDY    10   3  72 NW18      30.01R WCI  -8
ALBERT LEA     CLOUDY    10   3  72 NW14G22   29.96R WCI  -5
$$
MNZ078>079-086>088-094>096-091000-
   Southeast Minnesota

CITY           SKY/WX    TMP DP  RH WIND       PRES   REMARKS
ROCHESTER      CLOUDY     9   3  77 N17       29.92R WCI  -9
RED WING       FLURRIES  10   0  61 NW3       29.98S
STANTON        FLURRIES  12   5  72 N16G23    29.98R WCI  -4
DODGE CENTER   FLURRIES   9   3  78 N15       29.93R WCI  -8
WINONA         CLOUDY    12   3  67 N14G24    29.96R WCI  -3
AUSTIN         CLOUDY     9   3  78 NW13G20   29.94R WCI  -7
PRESTON        CLOUDY     9   2  75 N16G22    29.90S WCI  -9
$$
ABBREVIATIONS USED IN REMARKS
   TC - TEMPERATURES IN CELSIUS
  WCI - WIND CHILL INDEX
   HX - HEAT INDEX
  VSB - VISIBILITY
$$




USA.gov is the U.S. government's official web portal to all federal, state and local government web resources and services.